Mitchell, SD

11:10 PM CST on November 18, 2019 (GMT -0600)
Mitchell Municipal

Weather History for KMHE - September, 2019

Change the Weather History Date:

Saturday, September 14, 2019

  Actual Average Record
Temperature  
Mean Temperature 72 °F 64 °F  
Max Temperature 84 °F 77 °F 100 °F (1939)
Min Temperature 60 °F 50 °F 33 °F (1904)
Degree Days  
Heating Degree Days 0 4  
Month to date heating degree days 5 36  
Since 1 July heating degree days 14 53  
Cooling Degree Days 7 2  
Month to date cooling degree days 62 53  
Year to date cooling degree days 856 798  
Growing Degree Days 21 (Base 50)    
Moisture  
Dew Point 61 °F    
Average Humidity 74    
Maximum Humidity 93    
Minimum Humidity 55    
Precipitation  
Precipitation 0.00 in 0.08 in 2.25 in (1936)
Month to date precipitation 7.60 1.11  
Year to date precipitation 32.64 17.46  
Snow  
Snow 0.00 in - 0.00 in ()
Month to date snowfall 0.0  
Since 1 July snowfall 0.0  
Since 1 September snowfall 0.0  
Snow Depth 0.00 in    
Sea Level Pressure  
Sea Level Pressure 29.94 in    
Wind  
Wind Speed 7 mph (South)    
Max Wind Speed 14 mph    
Max Gust Speed 19 mph    
Visibility 10 miles    
Events      
T = Trace of Precipitation, MM = Missing Value Source: NWS Daily Summary

Daily Weather History Graph

Daily Weather History Graph

Search for Another Location

Airport or City:

Astronomy

Sep. 14, 2019 Rise Set
Actual Time 7:10 AM CDT 7:44 PM CDT
Civil Twilight 6:41 AM CDT 8:13 PM CDT
Nautical Twilight 6:06 AM CDT 8:47 PM CDT
Astronomical Twilight 5:31 AM CDT 9:22 PM CDT
Moon 8:26 PM CDT (9/14) 7:23 AM CDT (9/14)
Length of Visible Light 13h 32m
Length of Day
12h 34m
Full, 100% of the Moon is Illuminated
Sep 14
Full
Sep 21
Last Quarter
Sep 28
New
Oct 5
First Quarter
Oct 13
Full

Hourly Weather History & Observations

Time (CDT) Temp. Heat Index Dew Point Humidity Pressure Visibility Wind Dir Wind Speed Gust Speed Precip Events Conditions
12:53 AM 60.1 °F - 54.0 °F 80% 30.06 in 10.0 mi SSE 9.2 mph - N/A   Scattered Clouds
1:53 AM 60.1 °F - 55.0 °F 83% 30.06 in 10.0 mi South 10.4 mph - N/A   Mostly Cloudy
2:53 AM 61.0 °F - 55.0 °F 81% 30.04 in 10.0 mi South 9.2 mph - N/A   Scattered Clouds
3:53 AM 61.0 °F - 55.0 °F 81% 30.01 in 10.0 mi SSE 8.1 mph - N/A   Scattered Clouds
4:53 AM 62.1 °F - 54.0 °F 75% 29.98 in 10.0 mi SSE 10.4 mph - N/A   Mostly Cloudy
5:53 AM 61.0 °F - 54.0 °F 78% 29.96 in 10.0 mi SSE 11.5 mph - N/A   Clear
6:53 AM 60.1 °F - 54.0 °F 80% 29.95 in 10.0 mi SSE 10.4 mph - N/A   Clear
7:53 AM 60.1 °F - 55.0 °F 83% 29.96 in 10.0 mi SSE 9.2 mph - N/A   Clear
8:53 AM 64.0 °F - 57.0 °F 78% 29.95 in 10.0 mi SSE 10.4 mph - N/A   Clear
9:53 AM 68.0 °F - 57.9 °F 70% 29.95 in 10.0 mi SSE 13.8 mph - N/A   Clear
10:53 AM 71.1 °F - 60.1 °F 68% 29.95 in 10.0 mi South 10.4 mph - N/A   Clear
11:53 AM 75.0 °F - 61.0 °F 62% 29.93 in 10.0 mi South 9.2 mph - N/A   Clear
12:53 PM 77.0 °F - 62.1 °F 60% 29.92 in 10.0 mi Variable 6.9 mph - N/A   Clear
1:53 PM 80.1 °F 81.9 °F 64.9 °F 60% 29.89 in 10.0 mi SSW 12.7 mph - N/A   Clear
2:53 PM 82.0 °F 83.4 °F 64.0 °F 54% 29.88 in 10.0 mi South 8.1 mph - N/A   Clear
3:53 PM 82.9 °F 84.6 °F 64.9 °F 54% 29.87 in 10.0 mi Variable 4.6 mph - N/A   Clear
4:53 PM 82.9 °F 85.0 °F 66.0 °F 56% 29.86 in 10.0 mi SW 5.8 mph - N/A   Clear
5:53 PM 82.9 °F 84.6 °F 64.9 °F 54% 29.87 in 10.0 mi Calm Calm - N/A   Clear
6:53 PM 82.9 °F 85.0 °F 66.0 °F 56% 29.87 in 10.0 mi NNW 3.5 mph - N/A   Clear
7:53 PM 75.0 °F - 66.9 °F 76% 29.89 in 10.0 mi North 3.5 mph - N/A   Clear
8:53 PM 71.1 °F - 66.9 °F 87% 29.90 in 10.0 mi Calm Calm - N/A   Clear
9:53 PM 69.1 °F - 66.0 °F 90% 29.92 in 10.0 mi WNW 3.5 mph - N/A   Clear
10:53 PM 68.0 °F - 66.0 °F 93% 29.92 in 10.0 mi Calm Calm - N/A   Clear
11:53 PM 64.9 °F - 63.0 °F 93% 29.93 in 2.5 mi WNW 4.6 mph - N/A   Clear